Home   Weather   San Angelo   Past weeks

Flag for USA Past Weather in San Angelo, Texas, USA — Yesterday and Last 2 Weeks

Now
49 °F

Sunny.


Feels Like: 42 °F
Forecast: 44 / 72 °F
Wind: 18 mph from West

Location: Mathis Field

Current Time: Apr 30, 2017 at 10:06:57 am

Latest Report: Apr 30, 2017 at 8:51 am


Visibility: 10 mi

Pressure: 30.00 "Hg (28.03 "Hg at 561m altitude)

Humidity: 48%

Dew Point: 30 °F

Location of San AngeloLocation

Past Weather in San Angelo — Graph

°F

San Angelo Temperature Yesterday

Maximum temperature yesterday: 80 °F (at 12:51 am)
Minimum temperature yesterday: 52 °F (at 11:51 pm)
Average temperature yesterday: 69 °F

High & Low Weather Summary for the Past Weeks

 TemperatureHumidityPressure
High96 °F (Apr 28, 3:51 pm)90% (Apr 18, 7:51 am)30.24 "Hg (Apr 18, 7:51 am)
Low43 °F (Apr 23, 1:51 am)9% (Apr 25, 7:51 pm)29.34 "Hg (Apr 25, 7:51 pm)
Average71 °F52%29.81 "Hg
* Reported Apr 15 8:51 am — Apr 30 8:51 am, San Angelo, Weather by CustomWeather, © 2017

Note: Actual official high and low records may vary slightly from our data, if they occured in-between our weather recording intervals... More about our weather records

Advertising

San Angelo Weather History for the Previous 24 Hours

Scroll right to see more
 ConditionsComfort  
Time TempWeatherWind HumidityBarometerVisibility
8:51 am
Sun, Apr 30
49 °FSunny.18 mph48%30.00 "Hg10 mi
7:51 am45 °FSunny.15 mph56%30.01 "Hg10 mi
6:51 am44 °FClear.14 mph58%29.98 "Hg10 mi
5:51 am45 °FClear.17 mph58%29.96 "Hg10 mi
4:51 am46 °FClear.21 mph58%29.96 "Hg10 mi
3:51 am46 °FClear.22 mph56%29.91 "Hg10 mi
2:51 am46 °FPassing clouds.17 mph56%29.92 "Hg10 mi
1:51 am47 °FClear.18 mph56%29.94 "Hg10 mi
12:51 am50 °FClear.15 mph61%29.91 "Hg10 mi
11:51 pm
Sat, Apr 29
52 °FClear.18 mph61%29.89 "Hg10 mi
10:51 pm58 °FOvercast.21 mph50%29.88 "Hg10 mi
9:51 pm58 °FOvercast.20 mph43%29.83 "Hg10 mi
8:51 pm60 °FOvercast.17 mph38%29.80 "Hg10 mi
7:51 pm61 °FLight rain. Overcast.21 mph38%29.79 "Hg10 mi
6:51 pm64 °FLight rain. Overcast.26 mph37%29.76 "Hg10 mi
5:51 pm64 °FOvercast.21 mph38%29.72 "Hg10 mi
4:51 pm64 °FMostly cloudy.21 mph45%29.72 "Hg10 mi
3:51 pm68 °FMostly cloudy.18 mph44%29.69 "Hg10 mi
2:51 pm68 °FMostly cloudy.16 mph47%29.67 "Hg10 mi
1:51 pm69 °FOvercast.16 mph47%29.64 "Hg10 mi
12:51 pm64 °FOvercast.14 mph54%29.65 "Hg10 mi
11:51 am69 °FScattered clouds.17 mph49%29.64 "Hg10 mi
10:51 am64 °FMostly cloudy.18 mph58%29.62 "Hg10 mi
10:16 am69 °FOvercast.22 mph53%29.66 "Hg10 mi
Weather by CustomWeather, © 2017

See weather overviewHow to use our weather pages